Weather History for Vancouver, WA

Change the Weather History Date:

Monday, November 19, 2012

  Actual Average Record
Temperature  
Mean Temperature 55 °F 46 °F  
Max Temperature 60 °F 52 °F 61 °F (1965)
Min Temperature 50 °F 39 °F 22 °F (2000)
Degree Days  
Heating Degree Days 10    
Month to date heating degree days 280  
Since 1 July heating degree days 599  
Cooling Degree Days 0    
Month to date cooling degree days 0  
Year to date cooling degree days 398  
Growing Degree Days 4 (Base 50)    
Moisture  
Dew Point 49 °F    
Average Humidity 80    
Maximum Humidity 93    
Minimum Humidity 67    
Precipitation  
Precipitation 1.64 in 0.20 in 3.32 in (1996)
Month to date precipitation 4.03 3.52  
Year to date precipitation 35.19 29.98  
Snow  
Snow 0.00 in - - ()
Month to date snowfall 0.0  
Since 1 July snowfall 0.0  
Since 1 September snowfall 0.0  
Snow Depth 0.00 in    
Sea Level Pressure  
Sea Level Pressure 29.63 in    
Wind  
Wind Speed 9 mph (SSE)    
Max Wind Speed 20 mph    
Max Gust Speed 31 mph    
Visibility 8 miles    
Events Rain    
T = Trace of Precipitation, MM = Missing Value Source: NWS Daily Summary

Daily Weather History Graph

Daily Weather History Graph

Search for Another Location

Airport:

Trip Planner

Search our weather history database for the weather conditions in past years. The results will help you decide how hot, cold, wet, or windy it might be!

Date:

Astronomy

Nov. 19, 2012 Rise Set
Actual Time 7:16 AM PST 4:35 PM PST
Civil Twilight 6:43 AM PST 5:08 PM PST
Nautical Twilight 6:07 AM PST 5:44 PM PST
Astronomical Twilight 5:32 AM PST 6:19 PM PST
Moon 12:14 PM PST (11/19) 11:17 PM PST (11/19)
Length of Visible Light 10h 24m
Length of Day
9h 19m
Waxing Crescent, 42% of the Moon is Illuminated
Nov 19
Waxing Crescent
Nov 20
First Quarter
Nov 28
Full
Dec 6
Last Quarter
Dec 13
New

Hourly Weather History & Observations

Time (PST) Temp. Dew Point Humidity Pressure Visibility Wind Dir Wind Speed Gust Speed Precip Events Conditions
12:29 AM 50.0 °F 46.4 °F 87% 29.66 in 10.0 mi SE 9.2 mph - 0.04 in Rain Light Rain
12:48 AM 51.8 °F 46.4 °F 82% 29.66 in 7.0 mi SSE 9.2 mph 17.3 mph 0.06 in Rain Rain
12:53 AM 52.0 °F 46.9 °F 83% 29.67 in 7.0 mi SSE 10.4 mph 17.3 mph 0.07 in Rain Light Rain
1:53 AM 52.0 °F 48.0 °F 86% 29.65 in 8.0 mi SSE 8.1 mph - 0.11 in Rain Light Rain
2:53 AM 52.0 °F 48.0 °F 86% 29.66 in 6.0 mi SSE 9.2 mph - 0.16 in Rain Rain
3:53 AM 52.0 °F 48.9 °F 89% 29.63 in 9.0 mi SE 5.8 mph - 0.12 in Rain Light Rain
4:53 AM 51.1 °F 48.9 °F 92% 29.62 in 8.0 mi SE 6.9 mph - 0.03 in Rain Light Rain
5:53 AM 54.0 °F 48.0 °F 80% 29.60 in 10.0 mi SSE 8.1 mph 18.4 mph 0.02 in Rain Light Rain
6:53 AM 55.0 °F 48.0 °F 77% 29.58 in 10.0 mi SSE 9.2 mph 18.4 mph 0.00 in Rain Light Rain
7:53 AM 55.9 °F 46.9 °F 72% 29.56 in 10.0 mi South 9.2 mph - 0.00 in Rain Light Rain
8:53 AM 57.0 °F 46.9 °F 69% 29.56 in 10.0 mi South 8.1 mph - 0.00 in Rain Light Rain
9:53 AM 57.9 °F 46.9 °F 67% 29.57 in 9.0 mi South 15.0 mph 25.3 mph 0.02 in Rain Light Rain
10:53 AM 59.0 °F 48.0 °F 67% 29.55 in 10.0 mi South 10.4 mph 20.7 mph 0.02 in Rain Light Rain
11:53 AM 57.0 °F 50.0 °F 77% 29.54 in 5.0 mi SSE 8.1 mph - 0.06 in Rain Rain
12:53 PM 55.9 °F 51.1 °F 84% 29.55 in 4.0 mi South 10.4 mph 19.6 mph 0.19 in Rain Rain
1:53 PM 55.0 °F 51.1 °F 86% 29.55 in 5.0 mi SSE 11.5 mph 16.1 mph 0.22 in Rain Rain
2:13 PM 55.4 °F 51.8 °F 88% 29.57 in 1.8 mi South 10.4 mph 20.7 mph 0.11 in Rain Heavy Rain
2:28 PM 55.4 °F 51.8 °F 88% 29.60 in 3.0 mi SSW 12.7 mph 20.7 mph 0.19 in Rain Heavy Rain
2:53 PM 55.9 °F 48.0 °F 75% 29.61 in 3.0 mi SSW 11.5 mph 31.1 mph 0.29 in Rain Rain
3:53 PM 55.0 °F 48.0 °F 77% 29.58 in 5.0 mi South 10.4 mph 21.9 mph 0.19 in Rain Rain
4:53 PM 54.0 °F 50.0 °F 86% 29.62 in 10.0 mi SSE 8.1 mph - 0.07 in Rain Light Rain
5:53 PM 54.0 °F 51.1 °F 90% 29.62 in 10.0 mi SSE 6.9 mph - 0.02 in Rain Light Rain
6:53 PM 54.0 °F 51.1 °F 90% 29.65 in 10.0 mi SSE 8.1 mph - 0.02 in Rain Light Rain
7:53 PM 54.0 °F 48.9 °F 83% 29.69 in 9.0 mi South 9.2 mph - 0.00 in Rain Light Rain
8:53 PM 54.0 °F 48.9 °F 83% 29.70 in 10.0 mi South 5.8 mph - 0.02 in Rain Light Rain
9:43 PM 53.6 °F 48.2 °F 82% 29.72 in 10.0 mi South 8.1 mph - 0.00 in Rain Light Rain
9:53 PM 53.1 °F 48.9 °F 86% 29.72 in 10.0 mi Variable 6.9 mph - 0.01 in Rain Light Rain
10:14 PM 53.6 °F 48.2 °F 82% 29.71 in 10.0 mi SSE 4.6 mph - 0.00 in Rain Light Rain
10:53 PM 53.1 °F 48.0 °F 83% 29.73 in 10.0 mi Variable 4.6 mph - 0.01 in   Overcast
11:53 PM 51.1 °F 46.0 °F 83% 29.75 in 10.0 mi SSE 4.6 mph - 0.00 in   Overcast